Location: Burbank
(38.7788°N, 114.0429°W)
Time: 01:19:05
(UTC+00:00)

Tiros 1 - Visible Passes

Search period start: 14 May 2026 00:00
Search period end: 24 May 2026 00:00
Orbit: 618 x 648 km, 48.4° (Epoch: 13 May)

Date Brightness Start Highest point End Pass type
(mag) Time Alt. Az. Time Alt. Az. Time Alt. Az.
14 May 8.5 08:40:39 36° N 08:40:39 36° N 08:44:12 10° NE visible
14 May 9.2 10:18:54 10° NW 10:22:39 24° N 10:26:22 10° NE visible
15 May 9.6 07:23:16 14° NE 07:23:16 14° NE 07:23:57 10° NE visible
15 May 8.8 09:00:36 25° NW 09:01:43 28° NNW 09:05:42 10° NE visible
15 May 9.2 10:40:46 10° NW 10:44:36 25° N 10:48:25 10° ENE visible
16 May 9.0 07:43:08 26° NNE 07:43:08 26° NNE 07:45:23 10° NE visible
16 May 9.2 09:20:27 13° NW 09:23:39 24° N 09:27:24 10° NE visible
16 May 8.8 11:02:22 10° NW 11:06:29 32° NNE 11:10:35 10° E visible
17 May 8.8 08:02:51 31° NNW 08:02:51 31° NNW 08:06:50 10° NE visible
17 May 9.2 09:41:49 10° NW 09:45:37 25° N 09:49:23 10° ENE visible
17 May 8.1 11:23:50 10° NW 11:28:16 48° NNE 11:32:40 10° E visible
18 May 9.2 06:45:01 20° NE 06:45:01 20° NE 06:46:34 10° NE visible
18 May 9.2 08:22:17 17° NW 08:24:39 25° N 08:28:28 10° NE visible
18 May 9.0 10:03:30 10° NW 10:07:32 29° NNE 10:11:32 10° ENE visible
18 May 7.1 11:45:17 10° WNW 11:49:52 86° NNE 11:54:25 10° ESE visible
19 May 9.1 03:38:32 10° SSE 03:38:47 11° SSE 03:38:47 11° SSE visible
19 May9.705:26:29ENE05:26:29ENE05:16:35SWvisible
19 May 8.6 07:03:39 34° NNW 07:03:47 34° NNW 07:07:59 10° NE visible
19 May 9.3 08:42:51 10° NW 08:46:37 24° N 08:50:22 10° ENE visible
19 May 8.3 10:25:00 10° NW 10:29:21 42° NNE 10:33:40 10° E visible
20 May 8.0 03:57:35 10° SSW 04:01:30 27° SE 04:05:24 10° ENE visible
20 May 7.5 05:38:32 10° WSW 05:43:09 62° NNW 05:47:44 10° NE visible
20 May 9.1 07:21:45 10° WNW 07:25:40 26° N 07:29:34 10° NE visible
20 May 9.1 09:04:36 10° NW 09:08:33 27° N 09:12:29 10° ENE visible
20 May 7.3 10:46:25 10° NW 10:51:00 71° NNE 10:55:32 10° ESE visible
21 May 7.1 04:18:13 10° SW 04:22:48 57° SE 04:27:21 10° ENE visible
21 May 8.5 06:00:29 10° W 06:04:50 38° NNW 06:09:10 10° NE visible
21 May 9.3 07:43:50 10° NW 07:47:36 24° N 07:51:22 10° NE visible
21 May 8.5 09:26:08 10° NW 09:30:24 37° NNE 09:34:39 10° E visible
21 May 7.1 11:07:58 10° WNW 11:12:28 59° SW 11:16:56 10° SE visible
22 May 7.2 04:39:35 10° WSW 04:44:15 75° NNW 04:48:54 10° NE visible
22 May 9.1 06:22:39 10° WNW 06:26:40 28° NNW 06:30:40 10° NE visible
22 May 9.2 08:05:41 10° NW 08:09:34 26° N 08:13:26 10° ENE visible
22 May 7.6 09:47:34 10° NW 09:52:07 59° NNE 09:56:37 10° ESE visible
22 May 7.9 11:29:52 10° WNW 11:33:46 28° SW 11:37:38 10° SSE visible
23 May 7.4 03:19:31 10° SSW 03:23:59 45° SE 03:28:24 10° ENE visible
23 May 8.3 05:01:26 10° W 05:05:53 44° NNW 05:10:20 10° NE visible
23 May 9.3 06:44:47 10° WNW 06:48:36 24° N 06:52:24 10° NE visible
23 May 8.7 08:27:16 10° NW 08:31:27 33° NNE 08:35:36 10° E visible
23 May 6.9 10:09:04 10° WNW 10:13:38 74° SW 10:18:11 10° SE visible
